Skip Page Navigation
NASA JPL Caltech
NASA Logo - Jet Propulsion Laboratory + View the NASA Portal
+ Center for Near-Earth Object Studies
JPL Home Earth Solar System Stars & Galaxies Technology
JPL Solar System Dynamics
BODIES ORBITS EPHEMERIDES TOOLS PHYSICAL DATA DISCOVERY FAQ SITE MAP
JPL Small-Body Database Browser
Search: [ help ]  
67159 (2000 AC200)
Classification: Main-belt Asteroid          SPK-ID: 2067159
Ephemeris | Orbit Diagram | Orbital Elements | Mission Design | Physical Parameters | Discovery Circumstances | Close-Approach Data ]

[ show orbit diagram ]
Orbital Elements at Epoch 2459200.5 (2020-Dec-17.0) TDB
Reference: JPL 18 (heliocentric ecliptic J2000)
 Element Value Uncertainty (1-sigma)   Units 
e .1831489904083986 5.7298e-08  
a 2.739238571208146 1.4932e-08 au
q 2.23754979240363 1.598e-07 au
i 13.94836231353078 4.3076e-06 deg
node 145.3922292282947 2.5069e-05 deg
peri 271.0825401085036 2.7973e-05 deg
M 226.7365317086264 1.5431e-05 deg
tp 2459813.487792251635
(2022-Aug-21.98779225)
7.3409e-05 TDB
period 1655.93472869919
4.53
1.354e-05
3.707e-08
d
yr
n .2173998731718103 1.7776e-09 deg/d
Q 3.240927350012662 1.7667e-08 au
  Orbit Determination Parameters
   # obs. used (total)      751  
   data-arc span      9473 days (25.94 yr)  
   first obs. used      1994-08-10  
   last obs. used      2020-07-17  
   planetary ephem.      DE441  
   SB-pert. ephem.      SB441-N16  
   condition code      0  
   norm. resid. RMS      .55529  
   source      ORB  
   producer      Otto Matic  
   solution date      2021-Apr-13 12:27:49  

Additional Information
 Earth MOID = 1.29988 au 
 Jupiter MOID = 2.25553 au 
 T_jup = 3.284 
[ show covariance matrix ]

Ephemeris | Orbit Diagram | Orbital Elements | Mission Design | Physical Parameters | Discovery Circumstances | Close-Approach Data ]

Physical Parameter Table
Parameter Symbol Value Units Sigma Reference Notes
absolute magnitude H 14.8   n/a MPO337773  
diameter diameter 3.388 km 1.071 urn:nasa:pds:neowise_diameters_albedos::2.0[mainbelt] (http://adsabs.harvard.edu/abs/2011ApJ...741...68M)  
geometric albedo albedo 0.222   0.233 urn:nasa:pds:neowise_diameters_albedos::2.0[mainbelt] (http://adsabs.harvard.edu/abs/2011ApJ...741...68M)  

67159 (2000 AC200)          Discovered 2000-Jan-09 by LINEAR at Socorro
Reference: 20030910/Numbers.arcLast Updated: 2004-04-19

[ show close-approach data ]
Alternate Designations
 2000 AC200 = 1994 RZ22 = 1997 GT29 
Ephemeris | Orbit Diagram | Orbital Elements | Mission Design | Physical Parameters | Discovery Circumstances | Close-Approach Data ]
ABOUT SSD CREDITS/AWARDS PRIVACY/COPYRIGHT GLOSSARY LINKS
FirstGov 2021-Jun-14 03:25 UT
(server date/time)  
NASA Home Page
Site Manager:   Ryan S. Park
Webmaster  Alan B. Chamberlin